Weather History for KCGS - October, 2013

Change the Weather History Date:

Sunday, October 6, 2013

  Actual Average (KDCA) Record (KDCA)
Temperature  
Mean Temperature 77 °F 63 °F  
Max Temperature 90 °F 72 °F 93 °F (1941)
Min Temperature 64 °F 54 °F 35 °F (1881)
Degree Days  
Heating Degree Days 0 4  
Month to date heating degree days 21  
Since 1 July heating degree days 45  
Cooling Degree Days 12 2  
Month to date cooling degree days 14  
Year to date cooling degree days 1527  
Growing Degree Days 27 (Base 50)    
Moisture  
Dew Point 66 °F    
Average Humidity 71    
Maximum Humidity 99    
Minimum Humidity 37    
Precipitation  
Precipitation 0.00 in 0.11 in 1.47 in (1957)
Month to date precipitation 0.65  
Year to date precipitation 30.77  
Snow  
Snow 0.00 in 0.00 in - ()
Month to date snowfall 0.0  
Since 1 July snowfall 0.0  
Snow Depth -    
Sea Level Pressure  
Sea Level Pressure 29.98 in    
Wind  
Wind Speed 2 mph (South)    
Max Wind Speed 10 mph    
Max Gust Speed 16 mph    
Visibility 8 miles    
Events      
T = Trace of Precipitation, MM = Missing Value Source: NWS Daily Summary

Daily Weather History Graph

Daily Weather History Graph

Search for Another Location

Airport or City:

Trip Planner

Search our weather history database for the weather conditions in past years. The results will help you decide how hot, cold, wet, or windy it might be!

Date:

Astronomy

Oct. 06, 2013 Rise Set
Actual Time 7:08 AM EDT 6:42 PM EDT
Civil Twilight 6:41 AM EDT 7:08 PM EDT
Nautical Twilight 6:11 AM EDT 7:39 PM EDT
Astronomical Twilight 5:39 AM EDT 8:10 PM EDT
Moon 8:49 AM EDT (10/6) 7:41 PM EDT (10/6)
Length of Visible Light 12h 26m
Length of Day
11h 33m
Waxing Crescent, 3% of the Moon is Illuminated
Oct 6
Waxing Crescent
Oct 11
First Quarter
Oct 18
Full
Oct 26
Last Quarter
Nov 3
New

Hourly Weather History & Observations

Time (EDT) Temp. Heat Index Dew Point Humidity Pressure Visibility Wind Dir Wind Speed Gust Speed Precip Events Conditions
12:00 AM 69.1 °F - 68.4 °F 98% 30.03 in 5.0 mi Calm Calm - N/A   Clear
12:20 AM 68.9 °F - 68.2 °F 98% 30.03 in 7.0 mi Calm Calm - N/A   Clear
12:40 AM 68.7 °F - 68.0 °F 98% 30.02 in 7.0 mi Calm Calm - N/A   Clear
1:00 AM 68.4 °F - 67.8 °F 98% 30.02 in 4.0 mi Calm Calm - N/A   Clear
1:20 AM 68.0 °F - 67.5 °F 98% 30.02 in 5.0 mi Calm Calm - N/A   Clear
1:35 AM 68.2 °F - 67.5 °F 98% 30.02 in 7.0 mi Calm Calm - N/A   Clear
2:00 AM 68.0 °F - 67.3 °F 98% 30.01 in 5.0 mi Calm Calm - N/A   Clear
4:20 AM 66.2 °F - 65.8 °F 99% 29.99 in 5.0 mi Calm Calm - N/A   Clear
4:40 AM 66.4 °F - 66.2 °F 99% 29.99 in 4.0 mi Calm Calm - N/A   Clear
5:00 AM 66.0 °F - 65.5 °F 98% 29.99 in 2.0 mi Calm Calm - N/A   Clear
5:20 AM 65.8 °F - 65.5 °F 99% 30.00 in 3.0 mi Calm Calm - N/A   Clear
5:40 AM 64.9 °F - 64.6 °F 99% 30.00 in 2.0 mi Calm Calm - N/A   Clear
6:00 AM 65.3 °F - 65.1 °F 99% 30.00 in 0.8 mi Calm Calm - N/A   Unknown
6:20 AM 64.8 °F - 64.6 °F 99% 30.01 in 1.8 mi Calm Calm - N/A   Unknown
6:40 AM 64.8 °F - 64.6 °F 99% 30.01 in 3.0 mi Calm Calm - N/A   Clear
7:00 AM 64.4 °F - 64.2 °F 99% 30.01 in 2.0 mi Calm Calm - N/A   Clear
7:20 AM 64.4 °F - 64.2 °F 99% 30.01 in 1.5 mi Calm Calm - N/A   Unknown
7:40 AM 64.8 °F - 64.6 °F 99% 30.02 in 2.5 mi Calm Calm - N/A   Clear
8:00 AM 65.3 °F - 65.1 °F 99% 30.02 in 3.0 mi Calm Calm - N/A   Clear
8:20 AM 67.1 °F - 66.7 °F 99% 30.03 in 4.0 mi Calm Calm - N/A   Clear
8:40 AM 68.5 °F - 67.5 °F 96% 30.03 in 5.0 mi Calm Calm - N/A   Clear
9:00 AM 70.0 °F - 67.5 °F 92% 30.03 in 7.0 mi Calm Calm - N/A   Clear
9:20 AM 72.5 °F - 67.5 °F 84% 30.03 in 7.0 mi Calm Calm - N/A   Clear
9:40 AM 74.1 °F - 67.5 °F 80% 30.03 in 10.0 mi Calm Calm - N/A   Clear
10:00 AM 76.1 °F - 68.0 °F 76% 30.03 in 10.0 mi Calm Calm - N/A   Clear
10:20 AM 78.3 °F - 68.2 °F 71% 30.03 in 10.0 mi Calm Calm - N/A   Clear
10:40 AM 79.7 °F - 67.5 °F 66% 30.02 in 10.0 mi Calm Calm - N/A   Clear
11:00 AM 81.1 °F 83.4 °F 66.7 °F 61% 30.02 in 10.0 mi Calm Calm - N/A   Clear
11:20 AM 83.1 °F 85.4 °F 66.6 °F 57% 30.02 in 10.0 mi South 3.5 mph - N/A   Clear
11:40 AM 84.0 °F 86.3 °F 66.4 °F 55% 30.01 in 10.0 mi SSW 3.5 mph - N/A   Clear
12:00 PM 85.1 °F 87.4 °F 66.2 °F 53% 30.01 in 10.0 mi South 4.6 mph - N/A   Clear
12:20 PM 86.9 °F 88.3 °F 64.6 °F 47% 30.00 in 10.0 mi SSW 5.8 mph - N/A   Clear
12:40 PM 87.8 °F 89.4 °F 64.6 °F 46% 30.00 in 10.0 mi SW 8.1 mph - N/A   Clear
1:00 PM 88.5 °F 89.5 °F 63.3 °F 43% 29.99 in 10.0 mi SSW 8.1 mph 16.1 mph N/A   Clear
1:20 PM 86.9 °F 87.8 °F 63.3 °F 45% 29.98 in 10.0 mi SSW 5.8 mph - N/A   Clear
1:40 PM 87.8 °F 88.8 °F 63.5 °F 44% 29.97 in 10.0 mi SSW 4.6 mph - N/A   Clear
2:00 PM 88.7 °F 89.8 °F 63.5 °F 43% 29.96 in 10.0 mi WSW 5.8 mph - N/A   Clear
2:20 PM 88.2 °F 89.3 °F 63.5 °F 44% 29.96 in 10.0 mi SSW 4.6 mph - N/A   Scattered Clouds
2:40 PM 90.0 °F 90.0 °F 61.2 °F 38% 29.95 in 10.0 mi SSW 9.2 mph 16.1 mph N/A   Scattered Clouds
3:00 PM 89.2 °F 89.6 °F 62.1 °F 40% 29.95 in 10.0 mi SSE 4.6 mph - N/A   Scattered Clouds
3:20 PM 88.7 °F 88.6 °F 60.6 °F 39% 29.94 in 10.0 mi SSE 8.1 mph - N/A   Mostly Cloudy
3:40 PM 88.2 °F 88.4 °F 61.5 °F 41% 29.94 in 10.0 mi South 4.6 mph - N/A   Scattered Clouds
4:00 PM 89.2 °F 89.0 °F 60.4 °F 38% 29.94 in 10.0 mi South 10.4 mph - N/A   Scattered Clouds
4:20 PM 90.0 °F 89.7 °F 60.6 °F 37% 29.93 in 10.0 mi South 6.9 mph - N/A   Scattered Clouds
4:40 PM 88.5 °F 88.9 °F 62.1 °F 41% 29.93 in 10.0 mi South 9.2 mph 16.1 mph N/A   Mostly Cloudy
5:00 PM 88.0 °F 88.7 °F 62.8 °F 43% 29.93 in 10.0 mi SSE 5.8 mph - N/A   Scattered Clouds
5:20 PM 88.0 °F 88.4 °F 62.4 °F 42% 29.93 in 10.0 mi South 6.9 mph - N/A   Scattered Clouds
5:40 PM 87.1 °F 87.5 °F 62.2 °F 43% 29.93 in 10.0 mi SSE 9.2 mph 16.1 mph N/A   Clear
6:00 PM 86.0 °F 86.6 °F 62.6 °F 45% 29.93 in 10.0 mi South 8.1 mph - N/A   Clear
6:20 PM 85.1 °F 85.9 °F 62.8 °F 47% 29.94 in 10.0 mi SSE 5.8 mph - N/A   Clear
6:40 PM 84.2 °F 85.2 °F 63.1 °F 49% 29.94 in 10.0 mi SSE 6.9 mph - N/A   Clear
7:00 PM 83.3 °F 84.4 °F 63.5 °F 51% 29.94 in 10.0 mi SSE 5.8 mph - N/A   Clear
7:20 PM 81.0 °F 83.4 °F 67.1 °F 63% 29.94 in 10.0 mi SE 4.6 mph - N/A   Clear
7:40 PM 80.2 °F 82.8 °F 68.0 °F 66% 29.94 in 10.0 mi SE 5.8 mph - N/A   Clear
8:00 PM 79.7 °F - 68.2 °F 68% 29.94 in 10.0 mi SE 4.6 mph - N/A   Clear
8:20 PM 78.8 °F - 68.0 °F 69% 29.95 in 10.0 mi SE 4.6 mph - N/A   Clear
8:40 PM 78.1 °F - 68.4 °F 72% 29.95 in 10.0 mi SE 5.8 mph - N/A   Clear
9:00 PM 77.2 °F - 68.4 °F 74% 29.94 in 10.0 mi SE 6.9 mph - N/A   Clear
9:20 PM 76.8 °F - 68.4 °F 75% 29.95 in 10.0 mi SE 4.6 mph - N/A   Clear
9:40 PM 76.1 °F - 68.2 °F 76% 29.94 in 10.0 mi SSE 5.8 mph - N/A   Clear
10:00 PM 75.7 °F - 68.2 °F 77% 29.94 in 10.0 mi SSE 3.5 mph - N/A   Clear
10:20 PM 75.4 °F - 68.2 °F 78% 29.95 in 10.0 mi Calm Calm - N/A   Clear
10:40 PM 75.2 °F - 68.2 °F 79% 29.94 in 10.0 mi SSE 3.5 mph - N/A   Clear
11:00 PM 74.7 °F - 68.2 °F 80% 29.95 in 10.0 mi SE 3.5 mph - N/A   Scattered Clouds
11:20 PM 74.8 °F - 68.0 °F 79% 29.95 in 10.0 mi Calm Calm - N/A   Mostly Cloudy
11:40 PM 75.2 °F - 68.0 °F 78% 29.94 in 10.0 mi SSE 6.9 mph - N/A   Overcast